Tracking 19717 objects as of 25-Jun-2019
HD Live streaming from Space Station
objects crossing your sky now

LATINSAT A

Track LATINSAT A now!
10-day predictions
LATINSAT A is classified as:


NORAD ID: 27612
Int'l Code: 2002-058H
Perigee: 599.5 km
Apogee: 677.1 km
Inclination: 64.6 °
Period: 97.3 minutes
Semi major axis: 7009 km
RCS: 0.0297 m2 (small)
Launch date: December 20, 2002
Source: Argentina (ARGN)
Launch site: TYURATAM MISSILE AND SPACE COMPLEX (TTMTR)

Nanosatellite; planned constellation of 48 satellites, little LEO; asset tracking and monitoring services.
aabbcc
Your satellite tracking list
Your tracking list is empty




NASA's NSSDC Master Catalog

Two Line Element Set (TLE):
1 27612U 02058H   19175.70128798 -.00000071  00000-0  10369-4 0  9990
2 27612  64.5558 265.9317 0055383 243.5821 115.9594 14.79424599890257
Source of the keplerian elements: AFSPC